�������C�����ː����j�^�v���󋵏��
Date,Time,Cs137(Bq/L),Cs134(Bq/L),�S��(Bq/L)
2017/06/30,00:00,1.0,0.054,ND
2017/06/30,00:10,0.91,0.054,ND
2017/06/30,00:20,0.93,0.051,ND
2017/06/30,00:30,0.93,0.057,ND
2017/06/30,00:40,0.95,0.047,ND
2017/06/30,00:50,0.96,0.041,ND
2017/06/30,01:00,0.98,0.032,ND
2017/06/30,01:10,0.95,0.045,ND
2017/06/30,01:20,0.94,0.047,ND
2017/06/30,01:30,0.94,0.046,ND
2017/06/30,01:40,0.93,0.047,ND
2017/06/30,01:50,0.93,0.048,ND
2017/06/30,02:00,0.90,0.052,ND
2017/06/30,02:10,0.90,0.058,ND
2017/06/30,02:20,0.96,ND,ND
2017/06/30,02:30,0.90,0.029,ND
2017/06/30,02:40,0.88,0.034,ND
2017/06/30,02:50,0.87,0.029,ND
2017/06/30,03:00,0.84,0.033,ND
2017/06/30,03:10,0.82,0.035,ND
2017/06/30,03:20,0.81,0.039,ND
2017/06/30,03:30,0.80,0.035,ND
2017/06/30,03:40,0.79,0.030,ND
2017/06/30,03:50,0.77,0.034,ND
2017/06/30,04:00,0.78,0.027,ND
2017/06/30,04:10,0.75,0.035,ND
2017/06/30,04:20,0.73,0.030,ND
2017/06/30,04:30,0.72,0.031,ND
2017/06/30,04:40,0.75,ND,ND
2017/06/30,04:50,0.72,ND,ND
2017/06/30,05:00,0.66,0.030,ND
2017/06/30,05:10,0.67,ND,ND
2017/06/30,05:20,0.65,ND,ND
2017/06/30,05:30,0.58,0.026,ND
2017/06/30,05:40,0.55,0.034,ND
2017/06/30,05:50,0.54,0.035,ND
2017/06/30,06:00,0.58,ND,ND
2017/06/30,06:10,0.57,ND,ND
2017/06/30,06:20,0.62,ND,ND
2017/06/30,06:30,0.61,ND,ND
2017/06/30,06:40,0.58,0.025,ND
2017/06/30,06:50,0.64,0.029,ND
2017/06/30,07:00,0.63,0.035,ND
2017/06/30,07:10,0.56,0.038,ND
2017/06/30,07:20,0.56,0.036,ND
2017/06/30,07:30,0.57,0.037,ND
2017/06/30,07:40,0.58,0.029,ND
2017/06/30,07:50,0.56,0.028,ND
2017/06/30,08:00,0.60,0.028,ND
2017/06/30,08:10,0.57,0.028,ND
2017/06/30,08:20,0.71,ND,ND
2017/06/30,08:30,0.71,ND,ND
2017/06/30,08:40,0.70,ND,ND
2017/06/30,08:50,0.65,ND,ND
2017/06/30,09:00,0.67,ND,ND
2017/06/30,09:10,0.67,ND,ND
2017/06/30,09:20,0.65,0.027,ND
2017/06/30,09:30,0.66,0.034,ND
2017/06/30,09:40,0.69,0.038,ND
2017/06/30,09:50,0.69,0.036,ND
2017/06/30,10:00,0.67,0.044,ND
2017/06/30,10:10,0.69,0.035,ND
2017/06/30,10:20,0.69,0.037,ND
2017/06/30,10:30,0.79,ND,ND
2017/06/30,10:40,0.77,ND,ND
2017/06/30,10:50,0.78,ND,ND
2017/06/30,11:00,0.80,ND,ND
2017/06/30,11:10,0.81,ND,ND
2017/06/30,11:20,0.87,ND,ND
2017/06/30,11:30,0.82,0.033,ND
2017/06/30,11:40,0.83,0.026,ND
2017/06/30,11:50,0.88,ND,ND
2017/06/30,12:00,0.82,0.031,ND
2017/06/30,12:10,0.79,0.025,ND
2017/06/30,12:20,0.81,ND,ND
2017/06/30,12:30,0.79,ND,ND
2017/06/30,12:40,0.76,ND,ND
2017/06/30,12:50,0.74,ND,ND
2017/06/30,13:00,0.73,ND,ND
2017/06/30,13:10,0.72,ND,ND
2017/06/30,13:20,0.66,0.025,ND
2017/06/30,13:30,0.65,0.037,ND
2017/06/30,13:40,0.65,0.043,ND
2017/06/30,13:50,0.66,0.033,ND
2017/06/30,14:00,0.66,0.028,ND
2017/06/30,14:10,0.70,ND,ND
2017/06/30,14:20,0.70,ND,ND
2017/06/30,14:30,0.70,ND,ND
2017/06/30,14:40,0.69,ND,ND
2017/06/30,14:50,0.69,ND,ND
2017/06/30,15:00,0.62,0.028,ND
2017/06/30,15:10,0.62,0.029,ND
2017/06/30,15:20,0.66,ND,ND
2017/06/30,15:30,0.63,0.027,ND
2017/06/30,15:40,0.69,ND,ND
2017/06/30,15:50,0.69,ND,ND
2017/06/30,16:00,0.75,ND,ND
2017/06/30,16:10,0.72,ND,ND
2017/06/30,16:20,0.73,ND,ND
2017/06/30,16:30,0.70,ND,ND
2017/06/30,16:40,0.69,ND,ND
2017/06/30,16:50,0.67,ND,ND
2017/06/30,17:00,0.67,ND,ND
2017/06/30,17:10,0.66,ND,ND
2017/06/30,17:20,0.67,ND,ND
2017/06/30,17:30,0.69,ND,ND
2017/06/30,17:40,0.70,ND,ND
2017/06/30,17:50,0.71,ND,ND
2017/06/30,18:00,0.65,0.035,ND
2017/06/30,18:10,0.67,0.033,ND
2017/06/30,18:20,0.63,0.034,ND
2017/06/30,18:30,0.61,0.029,ND
2017/06/30,18:40,0.61,0.033,ND
2017/06/30,18:50,0.69,ND,ND
2017/06/30,19:00,0.70,ND,ND
2017/06/30,19:10,0.66,0.030,ND
2017/06/30,19:20,0.70,0.030,ND
2017/06/30,19:30,0.73,0.036,ND
2017/06/30,19:40,0.75,0.029,ND
2017/06/30,19:50,0.73,0.035,ND
2017/06/30,20:00,0.75,0.033,ND
2017/06/30,20:10,0.73,0.054,ND
2017/06/30,20:20,0.72,0.069,ND
2017/06/30,20:30,0.75,0.057,ND
2017/06/30,20:40,0.74,0.070,ND
2017/06/30,20:50,0.73,0.091,ND
2017/06/30,21:00,0.73,0.10,ND
2017/06/30,21:10,0.80,0.076,ND
2017/06/30,21:20,0.84,0.058,ND
2017/06/30,21:30,0.84,0.051,ND
2017/06/30,21:40,0.88,0.035,ND
2017/06/30,21:50,0.90,0.028,ND
2017/06/30,22:00,0.93,ND,ND
2017/06/30,22:10,0.85,0.038,ND
2017/06/30,22:20,0.85,0.053,ND
2017/06/30,22:30,0.83,0.054,ND
2017/06/30,22:40,0.84,0.051,ND
2017/06/30,22:50,0.82,0.066,ND
2017/06/30,23:00,0.83,0.076,ND
2017/06/30,23:10,0.84,0.059,ND
2017/06/30,23:20,0.85,0.048,ND
2017/06/30,23:30,0.88,0.043,ND
2017/06/30,23:40,0.85,0.056,ND
2017/06/30,23:50,0.87,0.055,ND
